| time (UTC) | temp F | wind direction | speed knots | gust knots | rain 1hr in | rain 24hr in | rain mn in | humidity % | barometer mb |
| 20260506005016 | 48 | 0.0 | 0.0 | 0.00 | 0.01 | 0.00 | 52 | 1006.5 | |
| 20260506004517 | 48 | 0.0 | 0.0 | 0.00 | 0.01 | 0.00 | 52 | 1006.6 | |
| 20260506004017 | 49 | 0.0 | 0.0 | 0.00 | 0.01 | 0.00 | 53 | 1006.7 | |
| 20260506003537 | 49 | 0.0 | 1.7 | 0.00 | 0.01 | 0.00 | 51 | 1006.6 | |
| 20260506003016 | 49 | 309 | 0.0 | 1.7 | 0.00 | 0.01 | 0.00 | 50 | 1006.6 |
| 20260506002516 | 49 | 309 | 0.0 | 1.7 | 0.00 | 0.01 | 0.00 | 49 | 1006.6 |
| 20260506002038 | 49 | 308 | 0.9 | 1.7 | 0.00 | 0.01 | 0.00 | 46 | 1006.6 |
| 20260506001537 | 49 | 304 | 0.9 | 1.7 | 0.00 | 0.01 | 0.00 | 46 | 1006.6 |
| 20260506001016 | 49 | 304 | 0.9 | 1.7 | 0.00 | 0.01 | 0.00 | 45 | 1006.6 |
| 20260506000517 | 49 | 299 | 0.9 | 1.7 | 0.00 | 0.01 | 0.00 | 45 | 1006.7 |
| 20260506000017 | 49 | 295 | 0.9 | 3.5 | 0.00 | 0.01 | 0.00 | 46 | 1006.7 |
| 20260505235536 | 49 | 290 | 1.7 | 4.3 | 0.00 | 0.01 | 0.00 | 44 | 1006.8 |
| 20260505235038 | 49 | 302 | 2.6 | 4.3 | 0.00 | 0.01 | 0.00 | 44 | 1006.8 |
| 20260505234516 | 49 | 304 | 1.7 | 5.2 | 0.00 | 0.01 | 0.00 | 44 | 1006.8 |
| 20260505234016 | 49 | 281 | 1.7 | 5.2 | 0.00 | 0.01 | 0.00 | 44 | 1006.7 |
| 20260505233517 | 49 | 275 | 1.7 | 5.2 | 0.00 | 0.01 | 0.00 | 45 | 1006.7 |
| 20260505233018 | 49 | 288 | 1.7 | 5.2 | 0.00 | 0.01 | 0.00 | 45 | 1006.7 |
| 20260505232516 | 49 | 259 | 2.6 | 5.2 | 0.00 | 0.01 | 0.00 | 47 | 1006.7 |
| 20260505232017 | 49 | 282 | 1.7 | 6.1 | 0.00 | 0.01 | 0.00 | 44 | 1006.8 |
| 20260505231516 | 49 | 266 | 3.5 | 7.0 | 0.00 | 0.01 | 0.00 | 44 | 1006.9 |
| 20260505231037 | 50 | 305 | 2.6 | 7.0 | 0.00 | 0.01 | 0.00 | 44 | 1006.8 |
| 20260505230517 | 50 | 314 | 3.5 | 7.0 | 0.00 | 0.01 | 0.00 | 43 | 1006.9 |
| 20260505230037 | 50 | 292 | 3.5 | 7.0 | 0.00 | 0.01 | 0.00 | 42 | 1006.9 |
| 20260505225536 | 50 | 290 | 2.6 | 7.8 | 0.00 | 0.01 | 0.00 | 43 | 1006.9 |
| 20260505225017 | 50 | 312 | 4.3 | 7.8 | 0.00 | 0.01 | 0.00 | 43 | 1006.9 |
| 20260505224517 | 50 | 309 | 4.3 | 7.8 | 0.00 | 0.01 | 0.00 | 44 | 1006.9 |
| 20260505224017 | 50 | 314 | 4.3 | 8.7 | 0.00 | 0.01 | 0.00 | 43 | 1006.9 |
| 20260505223518 | 50 | 321 | 4.3 | 8.7 | 0.00 | 0.01 | 0.00 | 42 | 1007.0 |
| 20260505223016 | 50 | 301 | 3.5 | 7.0 | 0.00 | 0.01 | 0.00 | 44 | 1006.9 |
| 20260505222517 | 50 | 295 | 2.6 | 8.7 | 0.00 | 0.01 | 0.00 | 44 | 1006.8 |
| 20260505222017 | 50 | 282 | 4.3 | 8.7 | 0.00 | 0.01 | 0.00 | 44 | 1006.7 |
| 20260505221516 | 50 | 286 | 4.3 | 7.8 | 0.00 | 0.01 | 0.00 | 43 | 1006.8 |
| 20260505221057 | 50 | 284 | 5.2 | 7.0 | 0.00 | 0.01 | 0.00 | 43 | 1006.8 |
| 20260505220516 | 50 | 282 | 4.3 | 9.6 | 0.00 | 0.01 | 0.00 | 43 | 1006.8 |
| 20260505220016 | 50 | 277 | 6.1 | 9.6 | 0.00 | 0.01 | 0.00 | 43 | 1006.8 |
| 20260505215516 | 50 | 288 | 5.2 | 9.6 | 0.00 | 0.01 | 0.00 | 44 | 1006.7 |
| 20260505215036 | 50 | 286 | 5.2 | 10.4 | 0.00 | 0.01 | 0.00 | 43 | 1006.8 |
| 20260505214516 | 50 | 277 | 6.1 | 10.4 | 0.00 | 0.01 | 0.00 | 42 | 1006.8 |
| 20260505214016 | 50 | 267 | 5.2 | 11.3 | 0.00 | 0.01 | 0.00 | 44 | 1006.8 |
| 20260505213516 | 50 | 264 | 6.1 | 11.3 | 0.00 | 0.01 | 0.00 | 44 | 1006.7 |
| 20260505213016 | 50 | 290 | 6.1 | 9.6 | 0.00 | 0.01 | 0.00 | 43 | 1006.7 |
| 20260505212516 | 50 | 283 | 3.5 | 11.3 | 0.00 | 0.01 | 0.00 | 43 | 1006.9 |
| 20260505212016 | 50 | 311 | 5.2 | 11.3 | 0.00 | 0.01 | 0.00 | 43 | 1006.9 |
| 20260505211517 | 50 | 280 | 4.3 | 9.6 | 0.00 | 0.01 | 0.00 | 45 | 1006.9 |
| 20260505211016 | 50 | 280 | 6.1 | 10.4 | 0.00 | 0.01 | 0.00 | 43 | 1006.9 |
| 20260505210517 | 50 | 281 | 7.8 | 10.4 | 0.00 | 0.01 | 0.00 | 42 | 1006.9 |
| 20260505210016 | 50 | 279 | 6.1 | 10.4 | 0.00 | 0.01 | 0.00 | 43 | 1006.8 |
| 20260505205516 | 50 | 308 | 3.5 | 9.6 | 0.00 | 0.01 | 0.00 | 42 | 1006.8 |
| 20260505205016 | 50 | 268 | 7.0 | 10.4 | 0.00 | 0.01 | 0.00 | 43 | 1006.8 |
| 20260505204516 | 50 | 291 | 5.2 | 10.4 | 0.00 | 0.01 | 0.00 | 42 | 1006.8 |
| 20260505204016 | 50 | 280 | 6.1 | 12.2 | 0.00 | 0.01 | 0.00 | 42 | 1006.9 |
| 20260505203516 | 50 | 271 | 6.1 | 12.2 | 0.00 | 0.01 | 0.00 | 42 | 1007.0 |
| 20260505203017 | 50 | 303 | 7.8 | 12.2 | 0.00 | 0.01 | 0.00 | 41 | 1007.0 |
| 20260505202517 | 51 | 286 | 7.0 | 12.2 | 0.00 | 0.01 | 0.00 | 41 | 1007.2 |
| 20260505202016 | 51 | 303 | 7.0 | 11.3 | 0.00 | 0.01 | 0.00 | 41 | 1007.2 |
| 20260505201516 | 51 | 285 | 6.1 | 10.4 | 0.00 | 0.01 | 0.00 | 42 | 1007.2 |
| 20260505201016 | 51 | 283 | 5.2 | 11.3 | 0.00 | 0.01 | 0.00 | 42 | 1007.1 |
| 20260505200537 | 51 | 282 | 7.0 | 13.0 | 0.00 | 0.01 | 0.00 | 41 | 1007.1 |
| 20260505200016 | 51 | 300 | 7.8 | 13.0 | 0.00 | 0.01 | 0.00 | 41 | 1007.1 |
| 20260505195516 | 51 | 307 | 6.1 | 12.2 | 0.00 | 0.01 | 0.00 | 42 | 1007.1 |
| 20260505195016 | 51 | 275 | 7.0 | 12.2 | 0.00 | 0.01 | 0.00 | 42 | 1007.1 |
| 20260505194517 | 50 | 276 | 6.1 | 10.4 | 0.00 | 0.01 | 0.00 | 41 | 1007.2 |
| 20260505194016 | 51 | 296 | 6.1 | 11.3 | 0.00 | 0.01 | 0.00 | 41 | 1007.2 |
| 20260505193516 | 50 | 310 | 6.1 | 12.2 | 0.00 | 0.01 | 0.00 | 42 | 1007.2 |
| 20260505193018 | 50 | 289 | 7.0 | 13.9 | 0.00 | 0.01 | 0.00 | 41 | 1007.3 |
| 20260505192516 | 50 | 309 | 8.7 | 13.9 | 0.00 | 0.01 | 0.00 | 41 | 1007.3 |
| 20260505192016 | 50 | 304 | 7.8 | 13.9 | 0.00 | 0.01 | 0.00 | 42 | 1007.3 |
| 20260505191517 | 50 | 291 | 8.7 | 13.9 | 0.00 | 0.01 | 0.00 | 40 | 1007.3 |
| 20260505191037 | 51 | 278 | 7.0 | 12.2 | 0.00 | 0.01 | 0.00 | 41 | 1007.2 |
| 20260505190517 | 51 | 294 | 7.0 | 13.0 | 0.00 | 0.01 | 0.00 | 41 | 1007.1 |
| 20260505190036 | 51 | 300 | 8.7 | 13.0 | 0.00 | 0.01 | 0.00 | 39 | 1007.0 |
| 20260505185516 | 51 | 298 | 7.8 | 13.0 | 0.00 | 0.01 | 0.00 | 39 | 1006.9 |
| 20260505185017 | 51 | 296 | 7.8 | 13.0 | 0.00 | 0.01 | 0.00 | 37 | 1006.8 |
| 20260505184538 | 51 | 282 | 6.1 | 11.3 | 0.00 | 0.01 | 0.00 | 39 | 1006.8 |
| 20260505184017 | 51 | 295 | 6.1 | 11.3 | 0.00 | 0.01 | 0.00 | 39 | 1006.8 |
| 20260505183516 | 51 | 278 | 7.8 | 12.2 | 0.00 | 0.01 | 0.00 | 38 | 1006.7 |
| 20260505183016 | 51 | 311 | 7.0 | 12.2 | 0.00 | 0.01 | 0.00 | 37 | 1006.7 |
| 20260505182516 | 51 | 284 | 7.0 | 16.5 | 0.00 | 0.01 | 0.00 | 38 | 1006.8 |
| 20260505182016 | 51 | 275 | 7.8 | 16.5 | 0.00 | 0.01 | 0.00 | 37 | 1006.8 |
| 20260505181516 | 51 | 277 | 7.8 | 13.9 | 0.00 | 0.01 | 0.00 | 37 | 1006.8 |
| 20260505181016 | 51 | 286 | 7.8 | 15.6 | 0.00 | 0.01 | 0.00 | 39 | 1006.6 |
| 20260505180556 | 51 | 311 | 9.6 | 15.6 | 0.00 | 0.01 | 0.00 | 36 | 1006.7 |
| 20260505180016 | 51 | 315 | 7.0 | 12.2 | 0.00 | 0.01 | 0.00 | 38 | 1006.5 |
| 20260505175516 | 51 | 296 | 7.0 | 14.8 | 0.00 | 0.01 | 0.00 | 36 | 1006.5 |
| 20260505175016 | 51 | 277 | 9.6 | 18.2 | 0.00 | 0.01 | 0.00 | 36 | 1006.6 |
| 20260505174516 | 51 | 288 | 10.4 | 18.2 | 0.00 | 0.01 | 0.00 | 36 | 1006.7 |
| 20260505174016 | 51 | 299 | 7.8 | 12.2 | 0.00 | 0.01 | 0.00 | 37 | 1006.5 |
| 20260505173516 | 51 | 305 | 7.8 | 13.9 | 0.00 | 0.01 | 0.00 | 38 | 1006.4 |
| 20260505173016 | 51 | 320 | 8.7 | 13.9 | 0.00 | 0.01 | 0.00 | 39 | 1006.5 |
| 20260505172517 | 51 | 323 | 8.7 | 13.0 | 0.00 | 0.01 | 0.00 | 36 | 1006.2 |
| 20260505172036 | 51 | 329 | 8.7 | 14.8 | 0.00 | 0.01 | 0.00 | 37 | 1006.2 |
| 20260505171516 | 51 | 327 | 8.7 | 14.8 | 0.00 | 0.01 | 0.00 | 39 | 1006.2 |
| 20260505171056 | 51 | 302 | 8.7 | 13.9 | 0.00 | 0.01 | 0.00 | 36 | 1006.3 |
| 20260505170516 | 51 | 300 | 7.0 | 14.8 | 0.00 | 0.01 | 0.00 | 41 | 1005.9 |
| 20260505170016 | 51 | 314 | 8.7 | 14.8 | 0.00 | 0.01 | 0.00 | 38 | 1006.0 |
| 20260505165517 | 51 | 329 | 7.8 | 13.9 | 0.00 | 0.01 | 0.00 | 40 | 1005.9 |
| 20260505165016 | 51 | 299 | 7.8 | 13.0 | 0.00 | 0.01 | 0.00 | 39 | 1005.9 |
| 20260505164537 | 51 | 321 | 6.1 | 12.2 | 0.00 | 0.01 | 0.00 | 39 | 1005.9 |
| 20260505164016 | 51 | 301 | 7.8 | 14.8 | 0.00 | 0.01 | 0.00 | 39 | 1005.7 |
| 20260505163516 | 51 | 322 | 8.7 | 14.8 | 0.00 | 0.01 | 0.00 | 40 | 1005.7 |
| 20260505163015 | 50 | 290 | 7.0 | 11.3 | 0.00 | 0.01 | 0.00 | 42 | 1005.7 |
| 20260505162538 | 50 | 256 | 6.1 | 13.9 | 0.00 | 0.01 | 0.00 | 42 | 1005.9 |
| 20260505162016 | 50 | 292 | 7.0 | 13.9 | 0.00 | 0.01 | 0.00 | 41 | 1006.0 |
| 20260505161537 | 50 | 330 | 8.7 | 13.0 | 0.00 | 0.01 | 0.00 | 42 | 1006.2 |
| 20260505161015 | 50 | 340 | 7.0 | 13.0 | 0.00 | 0.01 | 0.00 | 43 | 1006.0 |
| 20260505160516 | 49 | 308 | 7.8 | 13.0 | 0.00 | 0.01 | 0.00 | 41 | 1006.1 |
| 20260505153016 | 48 | 295 | 7.0 | 11.3 | 0.00 | 0.01 | 0.00 | 44 | 1006.0 |
| 20260505152516 | 48 | 314 | 6.1 | 12.2 | 0.00 | 0.01 | 0.00 | 44 | 1005.9 |
| 20260505152017 | 48 | 310 | 7.8 | 13.0 | 0.00 | 0.01 | 0.00 | 44 | 1006.1 |
| 20260505151515 | 48 | 303 | 7.8 | 13.0 | 0.00 | 0.01 | 0.00 | 44 | 1006.1 |
| 20260505151016 | 48 | 298 | 7.0 | 12.2 | 0.00 | 0.01 | 0.00 | 44 | 1006.4 |
| 20260505150517 | 48 | 293 | 3.5 | 9.6 | 0.00 | 0.01 | 0.00 | 48 | 1006.4 |
| 20260505140515 | 46 | 302 | 7.8 | 14.8 | 0.00 | 0.01 | 0.00 | 59 | 1005.5 |
| 20260505125015 | 46 | 297 | 7.0 | 11.3 | 0.00 | 0.01 | 0.00 | 75 | 1005.5 |
| 20260505124515 | 46 | 295 | 5.2 | 9.6 | 0.00 | 0.01 | 0.00 | 75 | 1005.5 |
| 20260505124035 | 46 | 291 | 5.2 | 10.4 | 0.00 | 0.01 | 0.00 | 76 | 1005.1 |
| 20260505123516 | 46 | 304 | 6.1 | 10.4 | 0.00 | 0.01 | 0.00 | 76 | 1004.8 |
| 20260505123016 | 46 | 308 | 3.5 | 9.6 | 0.00 | 0.01 | 0.00 | 77 | 1004.3 |
| 20260505122515 | 46 | 299 | 6.1 | 9.6 | 0.00 | 0.01 | 0.00 | 77 | 1004.3 |
| 20260505122015 | 46 | 284 | 4.3 | 10.4 | 0.00 | 0.01 | 0.00 | 78 | 1004.6 |
| 20260505121515 | 46 | 288 | 6.1 | 10.4 | 0.00 | 0.01 | 0.00 | 78 | 1004.5 |
| 20260505121015 | 46 | 276 | 7.0 | 13.0 | 0.00 | 0.01 | 0.00 | 78 | 1004.4 |
| 20260505120515 | 46 | 282 | 7.8 | 13.0 | 0.00 | 0.01 | 0.00 | 77 | 1004.3 |
| 20260505120015 | 47 | 288 | 8.7 | 13.0 | 0.00 | 0.01 | 0.00 | 76 | 1004.1 |
| 20260505115516 | 47 | 287 | 7.0 | 12.2 | 0.00 | 0.01 | 0.00 | 74 | 1004.1 |
| 20260505115015 | 47 | 298 | 4.3 | 11.3 | 0.00 | 0.01 | 0.00 | 74 | 1003.7 |
| 20260505114516 | 47 | 297 | 6.1 | 11.3 | 0.00 | 0.01 | 0.00 | 73 | 1003.9 |
| 20260505114016 | 47 | 295 | 4.3 | 8.7 | 0.00 | 0.01 | 0.00 | 73 | 1003.8 |
| 20260505113515 | 47 | 289 | 4.3 | 7.8 | 0.00 | 0.01 | 0.00 | 73 | 1003.5 |
| 20260505113015 | 47 | 307 | 4.3 | 7.8 | 0.00 | 0.01 | 0.00 | 73 | 1003.6 |
| 20260505112515 | 47 | 299 | 2.6 | 5.2 | 0.00 | 0.01 | 0.00 | 73 | 1003.2 |
| 20260505112016 | 47 | 291 | 2.6 | 7.8 | 0.00 | 0.01 | 0.00 | 74 | 1003.3 |
| 20260505111516 | 47 | 271 | 4.3 | 7.8 | 0.00 | 0.01 | 0.00 | 73 | 1003.3 |
| 20260505111015 | 47 | 282 | 3.5 | 7.0 | 0.00 | 0.01 | 0.00 | 73 | 1003.2 |
| 20260505110515 | 48 | 283 | 3.5 | 7.0 | 0.00 | 0.01 | 0.00 | 72 | 1003.0 |
| 20260505102037 | 49 | 251 | 7.0 | 9.6 | 0.00 | 0.01 | 0.00 | 66 | 1002.4 |
| 20260505101517 | 49 | 260 | 5.2 | 7.8 | 0.00 | 0.01 | 0.00 | 66 | 1002.0 |
| 20260505101018 | 49 | 263 | 5.2 | 9.6 | 0.00 | 0.01 | 0.00 | 65 | 1002.1 |
| 20260505100557 | 50 | 264 | 6.1 | 9.6 | 0.00 | 0.01 | 0.00 | 64 | 1002.1 |
| 20260505100017 | 50 | 271 | 5.2 | 9.6 | 0.00 | 0.01 | 0.00 | 64 | 1001.9 |
| 20260505095517 | 50 | 272 | 5.2 | 9.6 | 0.00 | 0.01 | 0.00 | 63 | 1002.1 |
| 20260505095017 | 50 | 261 | 6.1 | 9.6 | 0.00 | 0.01 | 0.00 | 64 | 1002.3 |
| 20260505094518 | 50 | 261 | 6.1 | 9.6 | 0.00 | 0.01 | 0.00 | 64 | 1002.2 |
| 20260505094017 | 50 | 259 | 4.3 | 8.7 | 0.00 | 0.01 | 0.00 | 65 | 1001.9 |
| 20260505093517 | 50 | 261 | 5.2 | 8.7 | 0.00 | 0.01 | 0.00 | 64 | 1001.8 |
| 20260505093018 | 51 | 260 | 4.3 | 7.0 | 0.00 | 0.01 | 0.00 | 64 | 1001.6 |
| 20260505092517 | 51 | 267 | 4.3 | 7.0 | 0.00 | 0.01 | 0.00 | 64 | 1001.6 |
| 20260505092017 | 51 | 284 | 2.6 | 7.0 | 0.00 | 0.01 | 0.00 | 62 | 1001.3 |
| 20260505091537 | 51 | 302 | 1.7 | 7.0 | 0.00 | 0.01 | 0.00 | 59 | 1000.6 |
| 20260505091017 | 51 | 261 | 3.5 | 9.6 | 0.00 | 0.01 | 0.00 | 59 | 1001.7 |
| 20260505090518 | 51 | 281 | 5.2 | 9.6 | 0.00 | 0.01 | 0.00 | 58 | 1001.7 |
| 20260505090017 | 52 | 285 | 3.5 | 9.6 | 0.00 | 0.01 | 0.00 | 58 | 1001.3 |
| 20260505085517 | 52 | 292 | 4.3 | 8.7 | 0.00 | 0.01 | 0.00 | 58 | 1001.2 |
| 20260505085017 | 52 | 290 | 5.2 | 8.7 | 0.00 | 0.01 | 0.00 | 58 | 1001.2 |
| 20260505084518 | 52 | 294 | 4.3 | 9.6 | 0.00 | 0.01 | 0.00 | 58 | 1000.6 |
| 20260505084017 | 52 | 284 | 4.3 | 9.6 | 0.00 | 0.01 | 0.00 | 58 | 1000.8 |
| 20260505083518 | 52 | 295 | 5.2 | 8.7 | 0.00 | 0.01 | 0.00 | 59 | 1001.1 |
| 20260505083017 | 52 | 288 | 6.1 | 8.7 | 0.00 | 0.01 | 0.00 | 61 | 1001.1 |
| 20260505082518 | 52 | 283 | 4.3 | 8.7 | 0.00 | 0.01 | 0.00 | 61 | 1000.8 |
| 20260505082017 | 52 | 284 | 2.6 | 6.1 | 0.00 | 0.01 | 0.00 | 61 | 1000.2 |
| 20260505081517 | 53 | 285 | 2.6 | 7.8 | 0.00 | 0.01 | 0.00 | 62 | 1000.3 |
| 20260505081038 | 53 | 286 | 4.3 | 7.8 | 0.00 | 0.01 | 0.00 | 61 | 1000.4 |
| 20260505080517 | 53 | 293 | 4.3 | 9.6 | 0.00 | 0.01 | 0.00 | 61 | 1000.6 |
| 20260505080016 | 53 | 303 | 6.1 | 9.6 | 0.00 | 0.01 | 0.00 | 60 | 1000.2 |
| 20260505075517 | 53 | 297 | 3.5 | 7.8 | 0.00 | 0.01 | 0.00 | 61 | 1000.1 |
| 20260505075038 | 53 | 305 | 2.6 | 7.8 | 0.00 | 0.01 | 0.00 | 61 | 1000.1 |
| 20260505074537 | 54 | 277 | 2.6 | 7.0 | 0.00 | 0.01 | 0.00 | 61 | 1000.2 |
| 20260505074018 | 54 | 285 | 3.5 | 7.8 | 0.00 | 0.01 | 0.00 | 61 | 999.8 |
| 20260505073516 | 54 | 292 | 4.3 | 9.6 | 0.00 | 0.01 | 0.00 | 60 | 999.9 |
| 20260505073017 | 54 | 301 | 7.0 | 10.4 | 0.00 | 0.01 | 0.00 | 60 | 1000.2 |
| 20260505072516 | 54 | 288 | 6.1 | 11.3 | 0.00 | 0.01 | 0.00 | 61 | 1000.2 |
| 20260505072017 | 54 | 281 | 5.2 | 11.3 | 0.00 | 0.01 | 0.00 | 60 | 1000.0 |
| 20260505071517 | 55 | 287 | 4.3 | 7.8 | 0.00 | 0.01 | 0.00 | 64 | 1000.3 |
| 20260505071017 | 55 | 274 | 3.5 | 11.3 | 0.00 | 0.01 | 0.00 | 64 | 1000.2 |
| 20260505070516 | 55 | 274 | 7.0 | 11.3 | 0.00 | 0.01 | 0.00 | 64 | 1000.6 |
| 20260505070018 | 55 | 277 | 6.1 | 9.6 | 0.00 | 0.01 | 0.00 | 63 | 1000.6 |
| 20260505065516 | 55 | 287 | 4.3 | 9.6 | 0.00 | 0.01 | 0.00 | 64 | 1000.2 |
| 20260505065016 | 56 | 291 | 6.1 | 11.3 | 0.00 | 0.01 | 0.00 | 65 | 999.9 |
| 20260505064516 | 56 | 269 | 5.2 | 11.3 | 0.00 | 0.01 | 0.00 | 66 | 999.9 |
| 20260505064037 | 56 | 260 | 5.2 | 7.8 | 0.00 | 0.01 | 0.00 | 66 | 999.8 |
| 20260505063516 | 56 | 261 | 4.3 | 11.3 | 0.00 | 0.01 | 0.00 | 65 | 999.4 |
| 20260505063017 | 56 | 265 | 6.1 | 11.3 | 0.00 | 0.01 | 0.00 | 65 | 999.6 |
| 20260505062517 | 56 | 272 | 4.3 | 7.8 | 0.00 | 0.01 | 0.00 | 67 | 999.9 |
| 20260505062016 | 56 | 280 | 4.3 | 7.8 | 0.00 | 0.01 | 0.00 | 70 | 999.9 |
| 20260505061517 | 57 | 264 | 3.5 | 7.8 | 0.00 | 0.01 | 0.00 | 71 | 999.8 |
| 20260505061016 | 57 | 272 | 4.3 | 7.0 | 0.00 | 0.01 | 0.00 | 71 | 999.8 |
| 20260505060536 | 57 | 280 | 4.3 | 9.6 | 0.00 | 0.01 | 0.00 | 71 | 999.8 |
| 20260505060057 | 57 | 281 | 4.3 | 9.6 | 0.00 | 0.01 | 0.00 | 72 | 999.7 |
| 20260505055518 | 57 | 271 | 5.2 | 10.4 | 0.00 | 0.01 | 0.00 | 72 | 999.4 |
| 20260505055018 | 57 | 271 | 6.1 | 10.4 | 0.00 | 0.01 | 0.00 | 72 | 999.3 |
| 20260505054518 | 58 | 266 | 5.2 | 10.4 | 0.00 | 0.01 | 0.00 | 72 | 999.0 |
| 20260505054016 | 58 | 275 | 6.1 | 13.9 | 0.00 | 0.01 | 0.00 | 72 | 999.1 |
| 20260505053516 | 59 | 274 | 7.0 | 13.9 | 0.00 | 0.01 | 0.00 | 72 | 999.0 |
| 20260505053018 | 59 | 276 | 7.0 | 13.0 | 0.00 | 0.01 | 0.00 | 72 | 998.9 |
| 20260505052516 | 59 | 274 | 6.1 | 11.3 | 0.00 | 0.01 | 0.00 | 75 | 998.7 |
| 20260505052016 | 59 | 275 | 6.1 | 11.3 | 0.00 | 0.01 | 0.00 | 76 | 998.7 |
| 20260505051517 | 58 | 274 | 5.2 | 9.6 | 0.00 | 0.01 | 0.00 | 78 | 998.7 |
| 20260505051016 | 58 | 262 | 6.1 | 10.4 | 0.00 | 0.01 | 0.00 | 80 | 998.6 |
| 20260505050516 | 58 | 253 | 5.2 | 10.4 | 0.00 | 0.01 | 0.00 | 81 | 998.5 |
| 20260505041516 | 59 | 175 | 1.7 | 5.2 | 0.01 | 0.01 | 0.00 | 79 | 997.9 |
| 20260505041016 | 59 | 195 | 2.6 | 6.1 | 0.01 | 0.01 | 0.00 | 78 | 998.0 |
| 20260505040516 | 60 | 180 | 2.6 | 7.8 | 0.01 | 0.01 | 0.00 | 77 | 997.9 |
| 20260505040016 | 60 | 180 | 2.6 | 7.8 | 0.01 | 0.01 | 0.01 | 76 | 998.1 |
| 20260505035515 | 60 | 179 | 4.3 | 7.8 | 0.01 | 0.01 | 0.01 | 74 | 998.1 |
| 20260505035017 | 61 | 227 | 3.5 | 8.7 | 0.01 | 0.01 | 0.01 | 72 | 998.3 |
| 20260505034537 | 61 | 306 | 4.3 | 8.7 | 0.00 | 0.00 | 0.00 | 72 | 998.8 |
| 20260505034017 | 61 | 278 | 4.3 | 7.8 | 0.00 | 0.00 | 0.00 | 72 | 998.8 |
| 20260505033518 | 61 | 234 | 3.5 | 7.0 | 0.00 | 0.00 | 0.00 | 70 | 998.3 |
| 20260505033017 | 61 | 251 | 3.5 | 9.6 | 0.00 | 0.00 | 0.00 | 70 | 998.2 |
| 20260505032517 | 61 | 229 | 4.3 | 9.6 | 0.00 | 0.00 | 0.00 | 70 | 998.0 |
| 20260505032017 | 61 | 207 | 2.6 | 7.8 | 0.00 | 0.00 | 0.00 | 70 | 997.8 |
| 20260505031538 | 61 | 202 | 3.5 | 8.7 | 0.00 | 0.00 | 0.00 | 69 | 997.7 |
| 20260505031017 | 61 | 206 | 5.2 | 9.6 | 0.00 | 0.00 | 0.00 | 69 | 997.6 |
| 20260505030517 | 61 | 184 | 4.3 | 12.2 | 0.00 | 0.00 | 0.00 | 68 | 997.5 |
| 20260505030018 | 61 | 176 | 4.3 | 12.2 | 0.00 | 0.00 | 0.00 | 68 | 997.4 |
| 20260505025516 | 62 | 189 | 5.2 | 12.2 | 0.00 | 0.00 | 0.00 | 67 | 997.4 |
| 20260505025017 | 62 | 197 | 4.3 | 9.6 | 0.00 | 0.00 | 0.00 | 67 | 997.2 |
| 20260505024516 | 62 | 198 | 4.3 | 9.6 | 0.00 | 0.00 | 0.00 | 67 | 997.1 |
| 20260505024017 | 62 | 200 | 4.3 | 10.4 | 0.00 | 0.00 | 0.00 | 67 | 997.0 |
| 20260505023518 | 62 | 205 | 5.2 | 11.3 | 0.00 | 0.00 | 0.00 | 67 | 997.1 |
| 20260505023017 | 63 | 201 | 5.2 | 13.9 | 0.00 | 0.00 | 0.00 | 67 | 997.2 |
| 20260505022516 | 63 | 201 | 6.1 | 15.6 | 0.00 | 0.00 | 0.00 | 67 | 997.3 |
| 20260505022016 | 64 | 213 | 5.2 | 17.4 | 0.00 | 0.00 | 0.00 | 66 | 997.4 |
| 20260505021517 | 64 | 223 | 7.8 | 17.4 | 0.00 | 0.00 | 0.00 | 65 | 997.7 |
| 20260505021017 | 64 | 214 | 7.8 | 16.5 | 0.00 | 0.00 | 0.00 | 65 | 997.6 |
| 20260505020518 | 64 | 233 | 7.8 | 16.5 | 0.00 | 0.00 | 0.00 | 64 | 997.7 |
| 20260505020016 | 65 | 232 | 7.8 | 19.1 | 0.00 | 0.00 | 0.00 | 63 | 997.6 |
| 20260505015516 | 65 | 231 | 11.3 | 19.1 | 0.00 | 0.00 | 0.00 | 63 | 997.4 |
| 20260505015057 | 65 | 210 | 9.6 | 19.1 | 0.00 | 0.00 | 0.00 | 63 | 997.0 |
| 20260505014537 | 65 | 207 | 7.8 | 15.6 | 0.00 | 0.00 | 0.00 | 64 | 997.0 |
| 20260505014016 | 66 | 216 | 7.8 | 18.2 | 0.00 | 0.00 | 0.00 | 64 | 996.8 |
| 20260505013536 | 66 | 225 | 10.4 | 18.2 | 0.00 | 0.00 | 0.00 | 64 | 996.6 |
| 20260505013017 | 66 | 224 | 7.8 | 19.1 | 0.00 | 0.00 | 0.00 | 64 | 996.5 |
| 20260505012517 | 66 | 217 | 9.6 | 20.9 | 0.00 | 0.00 | 0.00 | 65 | 996.4 |
| 20260505012016 | 67 | 207 | 7.0 | 20.9 | 0.00 | 0.00 | 0.00 | 66 | 996.4 |
| 20260505011517 | 67 | 206 | 6.1 | 14.8 | 0.00 | 0.00 | 0.00 | 64 | 996.4 |
| 20260505011016 | 67 | 193 | 7.0 | 14.8 | 0.00 | 0.00 | 0.00 | 63 | 996.2 |
| 20260505010516 | 68 | 210 | 7.0 | 14.8 | 0.00 | 0.00 | 0.00 | 62 | 996.2 |
| 20260505010016 | 68 | 210 | 8.7 | 14.8 | 0.00 | 0.00 | 0.00 | 61 | 996.1 |
| 20260505005516 | 68 | 186 | 8.7 | 15.6 | 0.00 | 0.00 | 0.00 | 61 | 996.0 |